"Pseudo-MPEC" for P115XjK

Created 2020 Sep 18 19:07:28 UT using Find_Orb

Click here for an explanation of pseudo-MPECs

 
 Astrometry: 
     P115XjK  C2020 09 131ULfasn'iuu:c_oZPjN8)\2O9]Zp$V-62YVs,JTOF)DchmC]K0f.F51
     P115XjK  C2020 09 13Cp!Pr*-%@?8wly!NG)r0q@.i#3yDAB:wjo-QN'J@Xp?Zpn[y@FJ`F51
     P115XjK  C2020 09 13T9g9bc5`8F/yR7ZW9MwsCk.weTGb;D*.`mC-5bp4n-IKdbxa5A,CF51
     P115XjK  C2020 09 13Lx@R`[Pji67f,xnAstrometryHj=U9ht!f[jaB4ZnfL5Pq$@bjL;F51
     P115XjK  C2020 09 14Ftc77sPYm,y(vaJdurredacted;POrWdNBvjf_3QI$BBT5:!qkBUF51
     P115XjK  C2020 09 14k:,@gc^Ck@5GvuZMD^p@lL/-'xx-iq90^n[mOU)vRX0Yn)v:U+!7F51
     P115XjK  C2020 09 141y54a$_hC#7XJ@4-pfeyAN)=h8jOhC*w;+?^bVfP*NFpmJ5TS,CEF51
     P115XjK  C2020 09 14/guw0mSojnTd,pt\K-dqWXR'G,4-)Zp/m[VP!H^eTT_1j0rU\)g4F51
     P115XjK  C2020 09 14eh@yuJ3ltv9US:_Tbw?qQ$\viT+K7L9:3Vi7i[2@OAsi['+XFVd$F51
     P115XjK  C2020 09 14l:GEr8qe:eyJT6:jZ?x-bY4Gclickk4X/8$I:%H2=sR1^Q\mAP7xF51
     P115XjK  C2020 09 14d0vqr/+sTs+de0g%56l,/DqHO-;J],H!xrhaWaPGZpWGuF7g,G1WF51
     P115XjK  C2020 09 14I:eeJg$f@PT'.oC8#.M%*MK3=7EfQ0*pfT8DtXuN_]x]u::^B?BIF51
     P115XjK  C2020 09 15\m7S*\@6lJ`2YxWSVR\p5ZSdNGHJgjN#8e0vGP2mUM%hK6u\hWRWF51
     P115XjK  C2020 09 15k_Bt,DDM5hereL*'7;#^kj+=ehB!d$juV!goC;h_)W2h8#);N_GOF51
     P115XjK  C2020 09 15V2qy4[#X143x)W9_yRC01forHB:=8B#_KYLC2:Xjri$+AaZ!ogD%F51
     P115XjK  C2020 09 18_/'[IEsEYq5_nyLlKpJ071MLfvmdVRs]4v\aB8tm(Y;*XAv)7Fn)F51
     P115XjK  C2020 09 181A/xqM.6evfG^.:XUB8pLJ8.)H2YwA1nwNB,a(*.@myHxksJ;1#:F51
     P115XjK  C2020 09 18N%'bMK!G`s.B$pcKsbsqSFvHWLexplanationL+QSm.U@3/vZoIhF51

Station data:
(F51) Pan-STARRS 1, Haleakala  (N20.707235 W156.255910)  US/Hawaii.
   Observers N. Primak, A. Schultz, S. Watters, J. Thiel, T. Goggia. Measurer
   PS1 Science Consortium. 1.8-m Ritchey-Chrétien + CCD.

Orbital elements:  P115XjK
   Perihelion 2020 Nov 16.108556 +/- 0.616 TT =  2:36:19 (JD 2459169.608556)
Epoch 2020 Sep 18.0 TT = JDT 2459110.5   Earth MOID: 0.2997   Ma: 0.0064
M 345.27149977 +/- 0.33             (J2000 ecliptic)          AutoNEOCP
n   0.24917712 +/- 0.00362          Peri.   16.76281 +/- 0.8
a   2.50109737 +/- 0.0242           Node    28.99455 +/- 0.16
e   0.4840271 +/- 0.00308           Incl.    2.57315 +/- 0.009
P   3.96                   H 23.4   G  0.15   U  9.0  
q 1.29049837 +/- 0.00614    Q 3.71169636 +/- 0.0437
From 18 observations 2020 Sept. 13-18; mean residual 0".14
Residuals in arcseconds: 
200913 F51  .03-  .06-    200914 F51  .13-  .03+    200915 F51  .11-  .41+    
200913 F51  .14-  .02+    200914 F51  .04+  .01+    200915 F51  .14+  .22-    
200913 F51  .13+  .09+    200914 F51  .08-  .09-    200915 F51  .07-  .20-    
200913 F51  .01+  .05-    200914 F51  .17+  .07-    200918 F51  .01+  .17-    
200914 F51  .22-  .29+    200914 F51  .03-  .05-    200918 F51  .10+  .02+    
200914 F51  .24+  .00     200914 F51  .08+  .10-    200918 F51  .23-  .11+    

Ephemerides (geocentric):
Date (UTC) HH   RA              Dec         delta   r     elong  mag " sig PA
---- -- -- --  -------------   -----------  ------ ------ -----  --- ---- ---
2020 09 18 19  00 54 15.257   +01 31 15.04  .43391 1.4245 162.5 23.1 .127  20
2020 09 18 20  00 54 15.978   +01 31 27.70  .43369 1.4243 162.6 23.1 .134  18
2020 09 18 21  00 54 16.697   +01 31 40.36  .43346 1.4242 162.6 23.1 .140  16
2020 09 18 22  00 54 17.414   +01 31 53.03  .43323 1.4240 162.6 23.1 .147  14
2020 09 18 23  00 54 18.128   +01 32 05.70  .43301 1.4238 162.7 23.1 .154  13
2020 09 19 00  00 54 18.840   +01 32 18.38  .43278 1.4236 162.7 23.1 .162  12
2020 09 19 01  00 54 19.549   +01 32 31.07  .43255 1.4235 162.7 23.1 .169  10
2020 09 19 02  00 54 20.256   +01 32 43.75  .43233 1.4233 162.8 23.1 .177   9
2020 09 19 03  00 54 20.961   +01 32 56.45  .43210 1.4231 162.8 23.1 .185   8
2020 09 19 04  00 54 21.664   +01 33 09.15  .43188 1.4229 162.8 23.1 .193   7
2020 09 19 05  00 54 22.364   +01 33 21.85  .43165 1.4228 162.9 23.1 .201   6
2020 09 19 06  00 54 23.062   +01 33 34.56  .43143 1.4226 162.9 23.1 .210   5
2020 09 19 07  00 54 23.758   +01 33 47.27  .43120 1.4224 163.0 23.1 .219   4
2020 09 19 08  00 54 24.452   +01 33 59.99  .43098 1.4222 163.0 23.1 .227   3
2020 09 19 09  00 54 25.143   +01 34 12.72  .43075 1.4221 163.0 23.1 .236   3
2020 09 19 10  00 54 25.832   +01 34 25.45  .43053 1.4219 163.1 23.1 .246   2
2020 09 19 11  00 54 26.518   +01 34 38.19  .43030 1.4217 163.1 23.1 .255   1
2020 09 19 12  00 54 27.202   +01 34 50.93  .43008 1.4215 163.1 23.1 .265   1
2020 09 19 13  00 54 27.884   +01 35 03.68  .42986 1.4214 163.2 23.1 .275   0
2020 09 19 14  00 54 28.564   +01 35 16.43  .42963 1.4212 163.2 23.1 .284 179
2020 09 19 15  00 54 29.242   +01 35 29.19  .42941 1.4210 163.2 23.1 .295 179
2020 09 19 16  00 54 29.917   +01 35 41.95  .42919 1.4208 163.3 23.1 .305 178
2020 09 19 17  00 54 30.590   +01 35 54.72  .42897 1.4207 163.3 23.1 .315 178
2020 09 19 18  00 54 31.260   +01 36 07.50  .42874 1.4205 163.4 23.1 .326 177
2020 09 19 19  00 54 31.929   +01 36 20.28  .42852 1.4203 163.4 23.0 .337 177
2020 09 19 20  00 54 32.595   +01 36 33.07  .42830 1.4201 163.4 23.0 .348 176
2020 09 19 21  00 54 33.259   +01 36 45.86  .42808 1.4200 163.5 23.0 .359 176
2020 09 19 22  00 54 33.920   +01 36 58.66  .42786 1.4198 163.5 23.0 .370 176
2020 09 19 23  00 54 34.580   +01 37 11.47  .42764 1.4196 163.5 23.0 .382 175
2020 09 20 00  00 54 35.237   +01 37 24.28  .42742 1.4194 163.6 23.0 .394 175
2020 09 20 01  00 54 35.892   +01 37 37.10  .42720 1.4193 163.6 23.0 .405 175
2020 09 20 02  00 54 36.544   +01 37 49.92  .42698 1.4191 163.6 23.0 .417 174
2020 09 20 03  00 54 37.195   +01 38 02.75  .42676 1.4189 163.7 23.0 .430 174
2020 09 20 04  00 54 37.843   +01 38 15.58  .42654 1.4187 163.7 23.0 .442 174
2020 09 20 05  00 54 38.489   +01 38 28.43  .42632 1.4186 163.8 23.0 .454 173
2020 09 20 06  00 54 39.133   +01 38 41.27  .42610 1.4184 163.8 23.0 .467 173
2020 09 20 07  00 54 39.774   +01 38 54.13  .42588 1.4182 163.8 23.0 .480 173
2020 09 20 08  00 54 40.413   +01 39 06.99  .42566 1.4181 163.9 23.0 .493 172
2020 09 20 09  00 54 41.050   +01 39 19.86  .42544 1.4179 163.9 23.0 .506 172
2020 09 20 10  00 54 41.685   +01 39 32.73  .42522 1.4177 163.9 23.0 .520 172
2020 09 20 11  00 54 42.318   +01 39 45.61  .42501 1.4175 164.0 23.0 .533 172
2020 09 20 12  00 54 42.948   +01 39 58.50  .42479 1.4174 164.0 23.0 .547 172
2020 09 20 13  00 54 43.577   +01 40 11.39  .42457 1.4172 164.0 23.0 .561 171
2020 09 20 14  00 54 44.203   +01 40 24.29  .42435 1.4170 164.1 23.0 .575 171
2020 09 20 15  00 54 44.827   +01 40 37.19  .42414 1.4168 164.1 23.0 .589 171
2020 09 20 16  00 54 45.448   +01 40 50.11  .42392 1.4167 164.2 23.0 .604 171
2020 09 20 17  00 54 46.068   +01 41 03.02  .42370 1.4165 164.2 23.0 .618 171
2020 09 20 18  00 54 46.685   +01 41 15.95  .42349 1.4163 164.2 23.0 .633 170